TRA3W LCPH-EHAM

Flight info

Callsign TRA3W
Flight time N/A
Altitude 38000
Route GENOS DCT PEDER DCT LUTIG DCT RDS UL609 MES DCT DISOR DCT LONTA UL608 DOLEV DCT RADLY DCT SIMBA DCT GASKA DCT MAPOX DCT NORKU
Aircraft B738/M-SDE2E3FGHIJ1RWXYZ/LB1

Departure

Time N/A
Airport Paphos International Airport (LCPH)

Arrival

Time 2026-04-29 21:17
Airport Amsterdam Airport Schiphol (EHAM)
Time Latitude Longitude Altitude Speed Heading
2026-04-29 20:44 51.68242 7.89953 38382 ft 430 kts 319°
2026-04-29 20:44 51.70318 7.86429 37929 ft 436 kts 319°
2026-04-29 20:44 51.72400 7.82885 37454 ft 434 kts 319°
2026-04-29 20:44 51.74458 7.79372 37074 ft 429 kts 319°
2026-04-29 20:45 51.76496 7.75886 36627 ft 426 kts 319°
2026-04-29 20:45 51.78524 7.72415 36257 ft 421 kts 319°
2026-04-29 20:45 51.80527 7.68983 35785 ft 420 kts 320°
2026-04-29 20:45 51.82523 7.65561 35460 ft 415 kts 320°
2026-04-29 20:46 51.84494 7.62177 35067 ft 413 kts 320°
2026-04-29 20:46 51.86460 7.58798 34692 ft 411 kts 320°
2026-04-29 20:46 51.88412 7.55439 34288 ft 408 kts 320°
2026-04-29 20:46 51.90354 7.52093 33859 ft 406 kts 320°
2026-04-29 20:47 51.92279 7.48770 33459 ft 404 kts 320°
2026-04-29 20:47 51.94191 7.45464 33072 ft 401 kts 319°
2026-04-29 20:47 51.96067 7.42218 32704 ft 398 kts 319°
2026-04-29 20:47 51.97950 7.38954 32334 ft 395 kts 319°
2026-04-29 20:48 51.99849 7.35660 31961 ft 393 kts 319°
2026-04-29 20:48 52.01685 7.32470 31605 ft 391 kts 319°
2026-04-29 20:48 52.03535 7.29251 31247 ft 389 kts 319°
2026-04-29 20:48 52.05372 7.26051 30888 ft 387 kts 319°
2026-04-29 20:49 52.07200 7.22863 30539 ft 385 kts 319°
2026-04-29 20:49 52.09015 7.19692 30132 ft 382 kts 319°
2026-04-29 20:49 52.10821 7.16534 29737 ft 379 kts 319°
2026-04-29 20:49 52.12609 7.13402 29382 ft 376 kts 319°
2026-04-29 20:50 52.14380 7.10297 29001 ft 373 kts 319°
2026-04-29 20:50 52.16133 7.07221 28643 ft 369 kts 319°
2026-04-29 20:50 52.17873 7.04165 28292 ft 366 kts 319°
2026-04-29 20:50 52.19596 7.01133 27933 ft 364 kts 318°
2026-04-29 20:51 52.21309 6.98115 27577 ft 361 kts 318°
2026-04-29 20:51 52.22959 6.95043 27262 ft 359 kts 315°
2026-04-29 20:51 52.24534 6.91883 26914 ft 358 kts 314°
2026-04-29 20:51 52.26079 6.88725 26573 ft 356 kts 314°
2026-04-29 20:52 52.27621 6.85581 26234 ft 353 kts 314°
2026-04-29 20:52 52.29162 6.82465 25896 ft 351 kts 314°
2026-04-29 20:52 52.30694 6.79379 25566 ft 349 kts 314°
2026-04-29 20:52 52.32222 6.76306 25225 ft 347 kts 314°
2026-04-29 20:53 52.33740 6.73250 24926 ft 345 kts 314°
2026-04-29 20:53 52.35245 6.70220 24640 ft 343 kts 314°
2026-04-29 20:53 52.36751 6.67188 24316 ft 344 kts 314°
2026-04-29 20:53 52.38265 6.64137 23995 ft 347 kts 314°
2026-04-29 20:54 52.41341 6.57926 23236 ft 357 kts 313°
2026-04-29 20:54 52.42897 6.54773 22864 ft 355 kts 313°
2026-04-29 20:54 52.44439 6.51643 22509 ft 352 kts 313°
2026-04-29 20:55 52.45953 6.48507 22153 ft 351 kts 308°
2026-04-29 20:55 52.46955 6.44841 21845 ft 356 kts 285°
2026-04-29 20:55 52.47278 6.40815 21552 ft 355 kts 278°
2026-04-29 20:55 52.47465 6.36781 21195 ft 355 kts 277°
2026-04-29 20:56 52.47628 6.32754 20854 ft 353 kts 277°
2026-04-29 20:56 52.47796 6.28750 20516 ft 351 kts 277°
2026-04-29 20:56 52.47974 6.24760 20180 ft 350 kts 277°
2026-04-29 20:56 52.48161 6.20791 19854 ft 348 kts 278°
2026-04-29 20:57 52.48350 6.16838 19519 ft 347 kts 278°
2026-04-29 20:57 52.48542 6.12903 19197 ft 346 kts 278°
2026-04-29 20:57 52.48732 6.08966 18866 ft 345 kts 278°
2026-04-29 20:57 52.48920 6.05050 18515 ft 344 kts 278°
2026-04-29 20:58 52.49106 6.01136 18147 ft 343 kts 277°
2026-04-29 20:58 52.49289 5.97245 17800 ft 342 kts 277°
2026-04-29 20:58 52.49471 5.93359 17464 ft 340 kts 277°
2026-04-29 20:58 52.49650 5.89503 17127 ft 338 kts 277°
2026-04-29 20:59 52.49828 5.85662 16806 ft 337 kts 277°
2026-04-29 20:59 52.50004 5.81838 16489 ft 335 kts 277°
2026-04-29 20:59 52.50178 5.78027 16167 ft 334 kts 277°
2026-04-29 20:59 52.50350 5.74233 15849 ft 333 kts 277°
2026-04-29 21:00 52.50521 5.70454 15532 ft 332 kts 276°
2026-04-29 21:00 52.50691 5.66684 15220 ft 331 kts 276°
2026-04-29 21:00 52.50858 5.62915 14908 ft 330 kts 276°
2026-04-29 21:00 52.51003 5.59237 14591 ft 330 kts 271°
2026-04-29 21:01 52.50593 5.55544 14312 ft 329 kts 246°
2026-04-29 21:01 52.49520 5.52243 14137 ft 328 kts 238°
2026-04-29 21:01 52.48326 5.49025 13902 ft 332 kts 237°
2026-04-29 21:01 52.47101 5.45791 13684 ft 335 kts 236°
2026-04-29 21:02 52.45873 5.42542 13453 ft 335 kts 237°
2026-04-29 21:02 52.44653 5.39288 13234 ft 334 kts 237°
2026-04-29 21:02 52.43447 5.36052 13024 ft 333 kts 237°
2026-04-29 21:02 52.42248 5.32822 12809 ft 332 kts 237°
2026-04-29 21:03 52.41065 5.29633 12609 ft 330 kts 237°
2026-04-29 21:03 52.39857 5.26377 12396 ft 329 kts 237°
2026-04-29 21:03 52.38669 5.23175 12187 ft 329 kts 237°
2026-04-29 21:03 52.37483 5.19979 11988 ft 328 kts 237°
2026-04-29 21:04 52.36298 5.16794 11778 ft 328 kts 237°
2026-04-29 21:04 52.35119 5.13629 11556 ft 324 kts 237°
2026-04-29 21:04 52.33979 5.10477 11329 ft 321 kts 243°
2026-04-29 21:04 52.33416 5.07033 11131 ft 317 kts 266°
2026-04-29 21:05 52.33379 5.03444 10969 ft 315 kts 271°
2026-04-29 21:05 52.33385 4.99867 10767 ft 315 kts 271°
2026-04-29 21:05 52.33379 4.96295 10574 ft 312 kts 270°
2026-04-29 21:05 52.33361 4.92773 10360 ft 308 kts 270°
2026-04-29 21:06 52.33336 4.89276 10052 ft 307 kts 270°
2026-04-29 21:06 52.33308 4.85784 9743 ft 306 kts 269°
2026-04-29 21:06 52.33279 4.82318 9449 ft 304 kts 269°
2026-04-29 21:06 52.33250 4.78871 9163 ft 302 kts 269°
2026-04-29 21:07 52.33220 4.75448 8875 ft 301 kts 269°
2026-04-29 21:07 52.33188 4.72041 8580 ft 299 kts 269°
2026-04-29 21:07 52.33156 4.68648 8302 ft 297 kts 269°
2026-04-29 21:07 52.33123 4.65321 8026 ft 296 kts 269°
2026-04-29 21:08 52.33089 4.61964 7742 ft 295 kts 269°
2026-04-29 21:08 52.33054 4.58625 7463 ft 293 kts 269°
2026-04-29 21:08 52.33020 4.55299 7187 ft 292 kts 269°
2026-04-29 21:08 52.32984 4.51984 6910 ft 291 kts 268°
2026-04-29 21:09 52.32947 4.48674 6627 ft 290 kts 268°
2026-04-29 21:09 52.32910 4.45389 6335 ft 289 kts 268°
2026-04-29 21:09 52.32713 4.42142 6031 ft 286 kts 250°
2026-04-29 21:09 52.31745 4.39397 5765 ft 276 kts 221°
2026-04-29 21:10 52.30210 4.37667 5524 ft 264 kts 198°
2026-04-29 21:10 52.28465 4.36964 5285 ft 255 kts 181°
2026-04-29 21:10 52.26711 4.36733 5049 ft 252 kts 179°
2026-04-29 21:10 52.24996 4.36873 4763 ft 243 kts 158°
2026-04-29 21:11 52.23578 4.38190 4564 ft 231 kts 135°
2026-04-29 21:11 52.22626 4.40193 4345 ft 225 kts 117°
2026-04-29 21:11 52.21942 4.42451 4138 ft 221 kts 114°
2026-04-29 21:11 52.21312 4.44674 4049 ft 209 kts 113°
2026-04-29 21:12 52.20889 4.46843 3936 ft 195 kts 97°
2026-04-29 21:12 52.20812 4.49019 3572 ft 195 kts 93°
2026-04-29 21:12 52.20785 4.51236 3078 ft 193 kts 91°
2026-04-29 21:12 52.21153 4.53287 2862 ft 181 kts 63°
2026-04-29 21:13 52.21779 4.54935 2661 ft 166 kts 65°
2026-04-29 21:13 52.22348 4.56496 2457 ft 155 kts 65°
2026-04-29 21:13 52.22886 4.57929 2267 ft 142 kts 65°
2026-04-29 21:13 52.23395 4.59268 2108 ft 134 kts 66°
2026-04-29 21:14 52.23876 4.60536 1917 ft 130 kts 65°
2026-04-29 21:14 52.24354 4.61795 1729 ft 130 kts 64°
2026-04-29 21:14 52.24837 4.63055 1524 ft 132 kts 64°
2026-04-29 21:14 52.25319 4.64324 1398 ft 131 kts 65°
2026-04-29 21:15 52.25800 4.65604 1187 ft 133 kts 64°
2026-04-29 21:15 52.26285 4.66860 1027 ft 129 kts 65°
2026-04-29 21:15 52.26754 4.68117 796 ft 130 kts 64°
2026-04-29 21:15 52.27231 4.69383 642 ft 132 kts 60°
2026-04-29 21:16 52.27740 4.70665 419 ft 137 kts 60°
2026-04-29 21:16 52.28247 4.71985 292 ft 137 kts 61°
2026-04-29 21:16 52.28758 4.73311 97 ft 140 kts 61°
2026-04-29 21:16 52.29265 4.74646 0 ft 129 kts 56°
2026-04-29 21:17 52.29657 4.75670 -3 ft 82 kts 58°
2026-04-29 21:17 52.29881 4.76244 -4 ft 51 kts 59°
2026-04-29 21:17 52.30083 4.76583 -3 ft 38 kts 27°
2026-04-29 21:17 52.30277 4.76759 -2 ft 25 kts 43°
2026-04-29 21:18 52.30374 4.76977 -2 ft 23 kts 58°
2026-04-29 21:18 52.30456 4.77196 -2 ft 22 kts 59°
2026-04-29 21:18 52.30535 4.77410 -2 ft 22 kts 58°
2026-04-29 21:18 52.30582 4.77526 -2 ft 10 kts 52°
2026-04-29 21:19 52.30639 4.77580 -2 ft 10 kts 15°
2026-04-29 21:19 52.30705 4.77591 -2 ft 9 kts
2026-04-29 21:19 52.30768 4.77597 -2 ft 9 kts
2026-04-29 21:19 52.30831 4.77603 -2 ft 9 kts
2026-04-29 21:20 52.30898 4.77610 -2 ft 10 kts
2026-04-29 21:20 52.30972 4.77616 -2 ft 11 kts 359°
2026-04-29 21:20 52.31031 4.77538 -2 ft 12 kts 301°
2026-04-29 21:20 52.31070 4.77412 -2 ft 13 kts 278°
2026-04-29 21:21 52.31074 4.77257 -2 ft 14 kts 273°
2026-04-29 21:21 52.31079 4.77097 -2 ft 15 kts 273°
2026-04-29 21:21 52.31085 4.76937 -2 ft 14 kts 273°
2026-04-29 21:21 52.31037 4.76823 -2 ft 12 kts 205°
2026-04-29 21:22 52.30969 4.76828 -2 ft 5 kts 147°
2026-04-29 21:22 52.30944 4.76866 -2 ft 5 kts 137°
2026-04-29 21:22 52.30928 4.76889 -2 ft 0 kts 137°